Home   Weather   Wipperfürth   Past weeks

Flag for Germany Past Weather in Wipperfürth, North Rhine-Westphalia, Germany — Yesterday and Last 2 Weeks

Now
45 °F

Scattered clouds.


Feels Like: 37 °F
Forecast: 30 / 47 °F
Wind: 18 mph from West

Location: Koeln / Bonn

Current Time: Apr 25, 2017 at 11:11:26 am

Latest Report: Apr 25, 2017 at 10:20 am


Visibility: N/A

Pressure: 29.77 "Hg

Humidity: 66%

Dew Point: 34 °F

Location of WipperfürthLocation

Past Weather in Wipperfürth — Graph

°F

Wipperfürth Temperature Yesterday

Maximum temperature yesterday: 61 °F (at 3:20 pm)
Minimum temperature yesterday: 28 °F (at 5:50 am)
Average temperature yesterday: 48 °F

High & Low Weather Summary for the Past Weeks

 TemperatureHumidityPressure
High61 °F (Apr 24, 3:20 pm)100% (Apr 14, 6:20 am)30.63 "Hg (Apr 14, 6:20 am)
Low25 °F (Apr 20, 6:20 am)32% (Apr 20, 3:50 pm)29.68 "Hg (Apr 25, 2:50 am)
Average46 °F69%30.18 "Hg
* Reported Apr 10 9:20 am — Apr 25 9:50 am, Wipperfürth, Weather by CustomWeather, © 2017

Note: Actual official high and low records may vary slightly from our data, if they occured in-between our weather recording intervals... More about our weather records

Advertising

Wipperfürth Weather History for the Previous 24 Hours

Scroll right to see more
 ConditionsComfort  
Time TempWeatherWind HumidityBarometerVisibility
9:50 am
Tue, Apr 25
45 °FScattered clouds.18 mph71%29.77 "HgN/A
9:20 am45 °FBroken clouds.15 mph76%29.74 "HgN/A
8:50 am45 °FBroken clouds.13 mph81%29.74 "HgN/A
8:20 am43 °FBroken clouds.10 mph93%29.74 "HgN/A
7:50 am43 °FBroken clouds.9 mph87%29.74 "HgN/A
7:20 am43 °FLight rain. Broken clouds.8 mph87%29.74 "HgN/A
6:50 am43 °FLight rain. Broken clouds.8 mph87%29.74 "HgN/A
6:20 am43 °FLight rain. Broken clouds.10 mph93%29.74 "HgN/A
5:50 am43 °FLight rain. Partly cloudy.13 mph93%29.71 "HgN/A
5:20 am43 °FLight rain. Passing clouds.16 mph87%29.71 "HgN/A
4:50 am45 °FLight rain. Partly cloudy.18 mph87%29.68 "HgN/A
4:20 am48 °FPassing clouds.17 mph76%29.68 "HgN/A
3:50 am50 °FPartly cloudy.12 mph67%29.68 "HgN/A
3:20 am50 °FMostly cloudy.6 mph67%29.68 "HgN/A
2:50 am50 °FPartly cloudy.7 mph67%29.68 "HgN/A
2:20 am50 °FOvercast.7 mph67%29.71 "HgN/A
1:50 am50 °FClear.7 mph67%29.71 "Hg10 mi
1:20 am50 °FClear.7 mph67%29.71 "Hg10 mi
12:50 am50 °FClear.7 mph67%29.74 "Hg10 mi
12:20 am52 °FPassing clouds.5 mph58%29.74 "HgN/A
11:50 pm
Mon, Apr 24
52 °FClear.5 mph58%29.74 "Hg10 mi
11:20 pm52 °FClear.5 mph58%29.77 "Hg10 mi
10:50 pm52 °FClear.6 mph58%29.77 "Hg10 mi
10:20 pm54 °FPassing clouds.5 mph54%29.77 "HgN/A
9:50 pm54 °FClear.7 mph51%29.80 "Hg10 mi
9:20 pm55 °FClear.7 mph47%29.80 "Hg10 mi
8:50 pm55 °FPassing clouds.8 mph47%29.80 "HgN/A
8:20 pm55 °FSunny.9 mph47%29.80 "Hg10 mi
7:50 pm57 °FSunny.10 mph44%29.83 "Hg10 mi
7:20 pm57 °FSunny.12 mph41%29.83 "Hg10 mi
6:50 pm57 °FSunny.12 mph44%29.83 "Hg10 mi
6:20 pm59 °FPassing clouds.10 mph42%29.86 "HgN/A
5:50 pm59 °FSunny.13 mph42%29.86 "Hg10 mi
5:20 pm61 °FPassing clouds.12 mph39%29.86 "HgN/A
4:50 pm59 °FPassing clouds.12 mph42%29.89 "HgN/A
4:20 pm59 °FSunny.7 mph42%29.89 "Hg10 mi
3:50 pm61 °FPassing clouds.8 mph39%29.92 "HgN/A
3:20 pm61 °FPassing clouds.8 mph39%29.92 "HgN/A
2:50 pm59 °FPassing clouds.9 mph39%29.95 "HgN/A
2:20 pm59 °FPassing clouds.9 mph42%29.95 "HgN/A
1:50 pm59 °FPassing clouds.14 mph39%29.98 "HgN/A
1:20 pm55 °FSunny.8 mph41%29.98 "Hg10 mi
12:50 pm57 °FPassing clouds.12 mph41%30.01 "HgN/A
12:20 pm55 °FPassing clouds.8 mph44%30.01 "HgN/A
11:50 am55 °FPassing clouds.8 mph44%30.04 "HgN/A
11:32 am54 °FPartly sunny.9 mph44%30.04 "HgN/A
11:20 am54 °FPartly sunny.7 mph44%30.04 "HgN/A
Weather by CustomWeather, © 2017

See weather overviewHow to use our weather pages